Weather History for Augusta, ME

Change the Weather History Date:

Friday, February 28, 2014

  Actual Average Record
Temperature  
Mean Temperature 13 °F -  
Max Temperature 19 °F 32 °F 48 °F (1998)
Min Temperature 6 °F 18 °F 3 °F (2003)
Degree Days  
Heating Degree Days 52    
Moisture  
Dew Point -6 °F    
Average Humidity 45    
Maximum Humidity 74    
Minimum Humidity 27    
Precipitation  
Precipitation 0.00 in - - ()
Sea Level Pressure  
Sea Level Pressure 30.17 in    
Wind  
Wind Speed 10 mph (WNW)    
Max Wind Speed 16 mph    
Max Gust Speed 26 mph    
Visibility 10 miles    
Events Snow    
Averages and records for this station are not official NWS values.
T = Trace of Precipitation, MM = Missing Value Source: NWS Daily Summary

Daily Weather History Graph

Daily Weather History Graph

Search for Another Location

Airport:

Trip Planner

Search our weather history database for the weather conditions in past years. The results will help you decide how hot, cold, wet, or windy it might be!

Date:

Astronomy

Feb. 28, 2014 Rise Set
Actual Time 6:18 AM EST 5:25 PM EST
Civil Twilight 5:49 AM EST 5:55 PM EST
Nautical Twilight 5:15 AM EST 6:28 PM EST
Astronomical Twilight 4:41 AM EST 7:02 PM EST
Moon 5:31 AM EST (2/28) 4:59 PM EST (2/28)
Length of Visible Light 12h 06m
Length of Day
11h 07m
Waning Crescent, 1% of the Moon is Illuminated
Feb 28
Waning Crescent
Mar 1
New
Mar 8
First Quarter
Mar 16
Full
Mar 23
Last Quarter

Hourly Weather History & Observations

Time (EST) Temp. Windchill Dew Point Humidity Pressure Visibility Wind Dir Wind Speed Gust Speed Precip Events Conditions
12:53 AM 12.9 °F 2.6 °F 6.1 °F 74% 29.78 in 10.0 mi West 6.9 mph - N/A   Overcast
1:53 AM 14.0 °F -0.2 °F 3.9 °F 64% 29.82 in 10.0 mi West 12.7 mph 19.6 mph N/A   Overcast
2:19 AM 12.9 °F 0.7 °F 6.1 °F 74% 29.82 in 3.0 mi West 9.2 mph 21.9 mph 0.00 in Snow Light Snow
2:53 AM 12.0 °F -2.7 °F 1.9 °F 64% 29.87 in 10.0 mi WNW 12.7 mph 19.6 mph 0.00 in   Overcast
3:53 AM 10.0 °F -4.5 °F -5.1 °F 51% 29.92 in 10.0 mi WNW 11.5 mph - N/A   Clear
4:53 AM 9.0 °F 0.6 °F -6.0 °F 51% 29.96 in 10.0 mi West 4.6 mph - N/A   Clear
5:53 AM 8.1 °F -5.3 °F -5.1 °F 55% 30.01 in 10.0 mi WNW 9.2 mph - N/A   Clear
6:53 AM 7.0 °F -7.5 °F -5.1 °F 58% 30.06 in 10.0 mi NW 10.4 mph - N/A   Clear
7:53 AM 9.0 °F -5.1 °F -5.1 °F 53% 30.10 in 10.0 mi WNW 10.4 mph 19.6 mph N/A   Clear
8:53 AM 10.9 °F -4.7 °F -6.0 °F 47% 30.14 in 10.0 mi WNW 13.8 mph 23.0 mph N/A   Clear
9:53 AM 14.0 °F -2.0 °F -7.1 °F 39% 30.17 in 10.0 mi West 16.1 mph 23.0 mph N/A   Clear
10:53 AM 15.1 °F 1.1 °F -9.9 °F 32% 30.21 in 10.0 mi West 12.7 mph 20.7 mph N/A   Clear
11:53 AM 17.1 °F 5.0 °F -9.9 °F 30% 30.22 in 10.0 mi WNW 10.4 mph 21.9 mph N/A   Clear
12:53 PM 17.1 °F 3.0 °F -9.9 °F 30% 30.23 in 10.0 mi WNW 13.8 mph 26.5 mph N/A   Clear
1:53 PM 18.0 °F 3.6 °F -8.0 °F 31% 30.24 in 10.0 mi NW 15.0 mph 21.9 mph N/A   Clear
2:53 PM 19.0 °F 5.0 °F -9.9 °F 27% 30.27 in 10.0 mi NW 15.0 mph 21.9 mph N/A   Clear
3:53 PM 18.0 °F 4.8 °F -9.9 °F 29% 30.29 in 10.0 mi WNW 12.7 mph 20.7 mph N/A   Clear
4:53 PM 17.1 °F 6.6 °F -9.9 °F 30% 30.32 in 10.0 mi West 8.1 mph - N/A   Clear
5:53 PM 16.0 °F 6.3 °F -9.9 °F 31% 30.35 in 10.0 mi WNW 6.9 mph - N/A   Clear
6:53 PM 14.0 °F 6.5 °F -11.0 °F 32% 30.37 in 10.0 mi WNW 4.6 mph - N/A   Clear
7:53 PM 12.0 °F 2.7 °F -9.9 °F 37% 30.38 in 10.0 mi NW 5.8 mph - N/A   Clear
8:53 PM 10.9 °F 1.4 °F -9.0 °F 40% 30.42 in 10.0 mi North 5.8 mph - N/A   Clear
9:53 PM 8.1 °F -3.2 °F -8.0 °F 48% 30.44 in 10.0 mi NNW 6.9 mph - N/A   Clear
10:53 PM 9.0 °F 2.4 °F -11.0 °F 40% 30.45 in 10.0 mi NNE 3.5 mph - N/A   Clear
11:53 PM 6.1 °F -0.9 °F -9.0 °F 50% 30.45 in 10.0 mi NNW 3.5 mph - N/A   Clear